Regional Weather Roundup
Issued by NWS

Home | Current Version | Previous Version | Graphics & Text | Print | Product List | Glossary On
Versions: 1 2 3 4 5 6 7 8 9 10 11 12 13 14 15 16 17 18 19 20 21 22 23 24 25 26 27 28 29 30 31 32 33 34 35 36 37 38 39 40 41 42 43 44 45 46 47 48 49 50
000
ASUS45 KBOU 232207
RWRCO

WEATHER ROUNDUP FOR COLORADO
NATIONAL WEATHER SERVICE DENVER/BOULDER CO
400 PM MDT WED JUL 23 2014

NOTE: "FAIR" INDICATES FEW OR NO CLOUDS BELOW 12000 FEET WITH NO
SIGNIFICANT WEATHER AND/OR OBSTRUCTIONS TO VISIBILITY.

COZ001>005-013-030-031-232300-
...NORTHWEST COLORADO...

CITY           SKY/WX    TMP DP  RH WIND       PRES   REMARKS
CRAIG          MOSUNNY   88  39  17 SW7       30.26F
HAYDEN         MOSUNNY   90  39  17 E13       30.30F
MEEKER         MOSUNNY   93  32  11 W12G18    30.27F
MOUNT WERNER   NOT AVBL
STEAMBOAT SPGS MOSUNNY   86  40  19 E7        30.33F
WALDEN         PTSUNNY   79  34  19 SW13      30.46F
$$

COZ006>008-011-232300-
...WEST CENTRAL VALLEYS...

CITY           SKY/WX    TMP DP  RH WIND       PRES   REMARKS
GRAND JUNCTION MOSUNNY   98  37  12 NW8       30.13F
MONTROSE       CLOUDY    87  39  18 SW21G32   30.28R
EAGLE          PTSUNNY   90  41  18 E26       30.31S
RIFLE          SUNNY     97  33  10 W18       30.18F
DELTA          PTSUNNY   97  41  14 S18G25    30.18S
NUCLA          PTSUNNY   99  34  10 W16       30.28F
$$

COZ017>023-064>068-232300-
...SOUTHWEST COLORADO...

CITY           SKY/WX    TMP DP  RH WIND       PRES   REMARKS
DURANGO        SUNNY     92  29  10 S7G24     30.33F
CORTEZ         SUNNY     97  33  10 VRB7G18   30.26F
PAGOSA SPRINGS MOSUNNY   88  28  11 SE7G17    30.43F
TELLURIDE      PTSUNNY   73  45  35 S6        30.56F
WOLF CREEK PAS NOT AVBL
$$

COZ009-010-012-014-032>034-037-058>063-232300-
...CENTRAL COLORADO...

CITY           SKY/WX    TMP DP  RH WIND       PRES   REMARKS
ASPEN          PTSUNNY   81  45  28 SW12      30.41S THUNDER
BUENA VISTA    PTSUNNY   80  35  20 NW20G26   30.47F
COPPER MTN     CLOUDY    63  36  36 E16G23    30.87S
BERTHOUD PASS  TSTM      48  34  57 CALM      30.94S
COTTONWOOD PAS PTSUNNY   73  36  25 CALM      30.65F
GUNNISON       MOSUNNY   84  36  17 W5        30.42F
KREMMLING      CLOUDY    79  36  21 S14       30.41R
LEADVILLE      LGT RAIN  62  41  46 SE6G25    30.69R
MONARCH PASS   PTSUNNY   63  32  31 NE22      30.92F
SALIDA         PTSUNNY  N/A N/A N/A E14G21    30.48F
SUNLIGHT       SUNNY     77  37  24 CALM      30.72F
WILKERSON PASS PTSUNNY   68  30  24 SW5       30.81S HAZE
$$

COZ069>075-232300-
...SAN LUIS VALLEY/SANGRE DE CRISTO MOUNTAINS...

CITY           SKY/WX    TMP DP  RH WIND       PRES   REMARKS
ALAMOSA        SUNNY     87  39  18 W12       30.42F
LA VETA PASS   MOSUNNY   75  36  23 NE16G26   30.69S
SAGUACHE       SUNNY     86  32  14 S7G17     30.46F
$$

COZ035-036-038>040-232300-
...NORTHERN COLORADO FRONT RANGE...

CITY           SKY/WX    TMP DP  RH WIND       PRES   REMARKS
DENVER INTL AP PTSUNNY   83  59  44 W13       30.28S
DMNS CITY PARK   N/A     85  38  19 E18G39    30.30R
AURORA         PTSUNNY   78  62  56 W12       30.32S
FRONT RANGE AP PTSUNNY   84  61  45 W17       30.29
ERIE MUNI ARPT CLOUDY    85  48  27 NW8G20    30.25F
BOULDER MUN AP CLOUDY    88  45  22 SW8G18    30.28S
CENTENNIAL     CLOUDY    79  47  32 W14G32    30.34R THUNDER
BROOMFIELD     PTSUNNY   81  41  24 SE14G35   30.29F
FORT COLLINS   PTSUNNY   82  61  47 SW14      30.25F
LONGMONT       PTSUNNY   85  61  44 NW10      30.29F
$$

COZ041-046-047-076>085-087-088-232300-
...PIKES PEAK/PALMER DIVIDE AND SOUTHERN FOOTHILLS...

CITY           SKY/WX    TMP DP  RH WIND       PRES   REMARKS
COLO. SPRINGS  PTSUNNY   90  41  18 SE18      30.37F
A. F. ACADEMY  PTSUNNY   86  42  21 SE16G25   30.37F
ELLICOTT       MOSUNNY   88  44  21 S18G26    30.35F
FALCON         MOSUNNY   86  42  21 S13       30.44S
FORT CARSON    SUNNY     90  40  17 SE14G24   30.34F
LIMON          MOSUNNY   89  60  37 SE26G33   30.30F
MONUMENT HILL  PTSUNNY   81  39  22 S17G24    30.42S
TRINIDAD       MOSUNNY   93  46  19 E15G23    30.30F
$$

COZ042>045-048>051-090-091-232300-
...NORTHEAST COLORADO...

CITY           SKY/WX    TMP DP  RH WIND       PRES   REMARKS
GREELEY ARPT   PTSUNNY   84  64  51 NW17      30.25R
AKRON          SUNNY     90  63  40 S25       30.23F
BURLINGTON     SUNNY     88  63  43 SE17G29   30.25F
WRAY             N/A     96  56  26 S15G25    30.19F
STERLING       SUNNY     93  70  46 S10       30.17F
HOLYOKE        SUNNY     95  63  34 S18G24    30.18F
FORT MORGAN    SUNNY     91  61  37 SE16G28   30.21F
$$

COZ086-089-092>099-232300-
...SOUTHEAST COLORADO...

CITY           SKY/WX    TMP DP  RH WIND       PRES   REMARKS
PUEBLO         SUNNY     95  47  19 SE15G23   30.22F
LA JUNTA       MOSUNNY   95  61  32 E26G38    30.20F
LAMAR          PTSUNNY   91  66  43 SE26G36   30.17F HAZE
SPRINGFIELD      N/A     93  46  19 SE6       30.23F
$$


USA.gov is the U.S. government's official web portal to all federal, state and local government web resources and services.